User: anonymous   Login
Location: Unspecified
(0.0000°N, 0.0000°E)
Time: 17:16:40
(UTC+02:00)
Language:

AO-7 - Orbit

View from above orbital plane
View from above orbital plane
View from above satellite
View from above satellite

Ground track
Ground track

The orbit data is extracted from the following two-line orbital elements,

1  7530U 74089B   18110.86873024 -.00000031 +00000-0 +82182-4 0  9992
2  7530 101.6816 079.0615 0012522 086.0193 301.8693 12.53632073987182
Epoch (UTC): 20 April 2018 20:50:58
Eccentricity: 0.0012522
inclination: 101.6816°
perigee height: 1439 km
apogee height: 1459 km
right ascension of ascending node: 79.0615°
argument of perigee: 86.0193°
revolutions per day: 12.53632073
mean anomaly at epoch: 301.8693°
orbit number at epoch: 98718

The dashed part of the orbit path shows where the satellite is in the earth's shadow,  

DLR